User: anonymous   Login
Location: Unspecified
(0.0000°N, 0.0000°E)
Time: 11:15:24
(UTC+00:00)
Language:

CANX 3B (BRITE-ASRA) - Orbit

View from above orbital plane
View from above orbital plane
View from above satellite
View from above satellite

Ground track
Ground track

The orbit data is extracted from the following two-line orbital elements,

1 39091U 13009F   17083.80824626 +.00000042 +00000-0 +30089-4 0  9990
2 39091 098.5582 289.4153 0010196 192.2530 167.8408 14.35018623213397
Epoch (UTC): 24 March 2017 19:23:52
Eccentricity: 0.0010196
inclination: 98.5582°
perigee height: 768 km
apogee height: 782 km
right ascension of ascending node: 289.4153°
argument of perigee: 192.2530°
revolutions per day: 14.35018623
mean anomaly at epoch: 167.8408°
orbit number at epoch: 21339

The dashed part of the orbit path shows where the satellite is in the earth's shadow,  

DLR